Regional Weather Roundup
Issued by NWS Sterling, VA

Home | Current Version | Previous Version | Text Only | Print | Product List | Glossary Off
Versions: 1 2 3 4 5 6 7 8 9 10 11 12 13 14 15 16 17 18 19 20 21 22 23 24 25 26 27 28 29 30 31 32 33 34 35 36 37 38 39 40 41 42 43 44 45 46 47 48 49 50

000
ASUS41 KLWX 302010
RWRLWX

REGIONAL WEATHER ROUNDUP
NATIONAL WEATHER SERVICE BALTIMORE MD/WASHINGTON DC
400 PM EDT TUE JUN 30 2015

Note: "FAIR" indicates few or no clouds below 12,000 feet
with no significant weather and/or obstructions to visibility.
 TC=TEMPERATURE CELSIUS

 * =Non NWS site. Station does not report precipitation (e.g. rain,
    snow, etc.), thunder, or fog.

DCZ001-MDZ009-015-VAZ040>042-051-053>054-302100-
WASHINGTON METRO

CITY           SKY/WX    TMP DP  RH WIND       PRES   REMARKS
WASHINGTON NAT PTSUNNY   89  69  51 S16G24    29.82F HX  93
DULLES         PTSUNNY   84  67  56 SW13      29.82F
ANDREWS AFB    SUNNY     85  72  65 SW14      29.81F HX  91
FT BELVOIR     SUNNY     87  67  52 VRB7      29.81F
QUANTICO       MOSUNNY   85  69  58 SW10      29.82F
COLLEGE PARK*  SUNNY     88  64  45 S10G16    29.81F
LEESBURG*      SUNNY     88  68  51 S20       29.82F HX  91
MANASSAS*      MOSUNNY   84  68  58 SW9         N/A
GAITHERSBURG*  PTSUNNY   88  68  51 SW6       29.86F HX  91

$$

MDZ006>007-011-014-302100-
BALTIMORE METRO

CITY           SKY/WX    TMP DP  RH WIND       PRES   REMARKS
BWI AIRPORT    PTSUNNY   82  72  71 S6        29.81F
MD SCIENCE CTR   N/A     81  69  67 MISG      29.81F
MARTIN STATE   PTSUNNY   79  70  73 S22G32    29.85F
ANNAPOLIS      PTSUNNY   83  71  67 S15G24    29.82F
FORT MEADE*    MOSUNNY   82  68  61 SW8       29.84F

$$

MDZ012-015-019>023-302100-
MARYLAND EASTERN SHORE

CITY           SKY/WX    TMP DP  RH WIND       PRES   REMARKS
OCEAN CITY     SUNNY     79  72  79 VRB7G16   29.88F
SALISBURY      MOSUNNY   85  70  60 SE14G22   29.86F
BAY BRIDGE AP*   N/A     86  68  54 SE13      29.82F
CAMBRIDGE*     SUNNY     86  66  51 S13G23    29.84F
EASTON*        MOSUNNY   88  70  55 S16G25    29.87F HX  92

$$

MDZ017>025-302100-
SOUTHERN MARYLAND

CITY           SKY/WX    TMP DP  RH WIND       PRES   REMARKS
PATUXENT RIVER PTSUNNY   85  73  67 SE10      29.82F THUNDER HX  91
ST INIGOES     SUNNY     86  72  62 SE12G17   29.81F HX  92
LEONARDTOWN*   PTSUNNY   81  68  65 CALM      29.85F

$$

MDZ003>005-302100-
NORTH CENTRAL MARYLAND

CITY           SKY/WX    TMP DP  RH WIND       PRES   REMARKS
FREDERICK*     PTSUNNY   88  72  58 SW9       29.84F HX  94
HAGERSTOWN APT MOSUNNY   86  62  44 S12       29.81F
WESTMINSTER*   MOSUNNY   88  66  48 S10G16    29.84F HX  90

$$

MDZ501>502-302100-
WESTERN MARYLAND

CITY           SKY/WX    TMP DP  RH WIND       PRES   REMARKS
OAKLAND*       MOSUNNY   72  70  94 SW9G17    29.92F
CUMBERLAND*    SUNNY     86  61  42 SW12      29.84F

$$

VAZ025>031-302100-
SHENANDOAH VALLEY

CITY           SKY/WX    TMP DP  RH WIND       PRES   REMARKS
WINCHESTER*    LGT RAIN  81  70  69 SW3       29.82F
FRONT ROYAL*   MOCLDY    82  70  65 S8        29.82F
LURAY*         FAIR      84  64  51 SW9       29.84F
NEW MARKET*    CLOUDY    70  67  91 E6G23     29.83S VSB 3/4
STAUNTON*      MOSUNNY   84  64  50 SW13      29.88F
WAYNESBORO*    FAIR      82  63  51 SW8       29.89F

$$

WVZ021-048>050-054>055-302100-
EASTERN WEST VIRGINIA PANHANDLE

CITY           SKY/WX    TMP DP  RH WIND       PRES   REMARKS
MARTINSBURG    MOSUNNY   84  66  54 S8        29.81F
PETERSBURG*    MOSUNNY   85  56  36 SW5       29.83F

$$

VAZ036>039-050-302100-
CENTRAL FOOTHILLS

CITY           SKY/WX    TMP DP  RH WIND       PRES   REMARKS
CHARLOTTESVILL SUNNY     83  67  58 SW12      29.84F
CULPEPER*      SUNNY     83  67  57 SW9       29.83F
ORANGE*        SUNNY     86  66  51 SE12      29.85F
GORDONSVILLE*  FAIR      84  64  51 SW12      29.83F
WARRENTON*     FAIR      86  71  61 SW10      29.82F HX  91

$$

VAZ055>057-302100-
NORTH AND CENTRAL PIEDMONT

CITY           SKY/WX    TMP DP  RH WIND       PRES   REMARKS
FREDERICKSBRG* MOSUNNY   89  67  47 SW12G17   29.81F HX  92
STAFFORD*      SUNNY     85  67  55 SW9       29.86F

$$

NCZ024-NYZ072-PAZ021-071-VAZ022-071-302100-
OTHER REGIONAL OBSERVATIONS

CITY           SKY/WX    TMP DP  RH WIND       PRES   REMARKS
NEW YORK CITY  MOSUNNY   80  58  46 S8G25     29.93S
PHILADELPHIA   CLOUDY    83  62  49 S16G22    29.85F THUNDER
PITTSBURGH     PTSUNNY   74  65  73 SW8       29.81F
ROANOKE        MOSUNNY   85  62  46 SW10      29.90F
RICHMOND       MOSUNNY   85  67  54 S13       29.85F THUNDER
RALEIGH        MOSUNNY   91  67  44 W8        29.87F HX  94

$$

ANZ530>537-302100-
MARINE OBSERVATIONS

STATION/POSITION TIME  TEMP    WIND        PRES
                       AIR SEA DIR/SP/G
                 (UTC) (F)     (DEG/KT/KT) (MB)
THOMAS PT LIGHT  NOT AVBL
BALT KEY BRIDGE  1900   80     150/ 20/ 22 1009.5F
COVE POINT       1900   80     180/ 23/ 25 1011.4F
LEWISETTA        1900   85 81  190/ 11/ 14 1010.6F
SOLOMONS ISLAND  1900      81                N/A
PINEY POINT      1900          200/ 14/ 15   N/A

$$




USA.gov is the U.S. government's official web portal to all federal, state and local government web resources and services.